QPF
0.00 0.00 0.00 0.00 0.00 0.01 0.02 0.02 0.02 0.02 0.02 0.02 0.02 0.02 0.02 0.02 0.04 0.05 0.05 0.04 0.06 0.08 0.08 0.07 0.06 0.06 0.06 0.09 0.11 0.10 0.08 0.10 0.10 0.11 0.12 0.12 0.12 0.11 0.10 0.10 0.11 0.12 0.12 0.12
0.00 0.00 0.00 0.00 0.00 0.00 0.01 0.01 0.01 0.01 0.01 0.01 0.02 0.02 0.02 0.02 0.02 0.02 0.03 0.04 0.05 0.06 0.07 0.06 0.05 0.05 0.04 0.05 0.07 0.06 0.06 0.06 0.06 0.09 0.12 0.13 0.13 0.12 0.11 0.11 0.11 0.11 0.11 0.11
0.00 0.00 0.00 0.00 0.00 0.00 0.01 0.01 0.01 0.01 0.01 0.01 0.01 0.01 0.01 0.01 0.01 0.02 0.02 0.03 0.04 0.05 0.05 0.05 0.04 0.05 0.05 0.04 0.04 0.05 0.04 0.04 0.04 0.06 0.09 0.13 0.14 0.15 0.14 0.12 0.11 0.12 0.11 0.11
0.00 0.00 0.00 0.00 0.00 0.00 0.00 0.01 0.00 0.01 0.01 0.01 0.01 0.00 0.00 0.00 0.01 0.01 0.03 0.04 0.04 0.05 0.05 0.04 0.03 0.04 0.04 0.03 0.04 0.05 0.04 0.03 0.03 0.04 0.07 0.10 0.11 0.12 0.12 0.11 0.11 0.12 0.12 0.11
0.00 0.00 0.00 0.00 0.00 0.00 0.00 0.01 0.00 0.00 0.00 0.00 0.00 0.00 0.00 0.00 0.01 0.02 0.03 0.03 0.04 0.04 0.03 0.02 0.02 0.03 0.03 0.02 0.03 0.03 0.03 0.03 0.02 0.02 0.04 0.07 0.09 0.11 0.12 0.12 0.12 0.12 0.12 0.11
0.00 0.00 0.00 0.00 0.00 0.00 0.00 0.00 0.00 0.00 0.00 0.00 0.00 0.01 0.00 0.01 0.01 0.01 0.01 0.02 0.03 0.03 0.01 0.01 0.01 0.01 0.02 0.02 0.02 0.02 0.03 0.03 0.03 0.03 0.04 0.05 0.06 0.08 0.10 0.11 0.12 0.13 0.14 0.13
0.00 0.00 0.00 0.00 0.00 0.00 0.00 0.01 0.00 0.00 0.00 0.00 0.01 0.01 0.00 0.00 0.00 0.00 0.00 0.01 0.02 0.02 0.01 0.01 0.01 0.01 0.01 0.02 0.02 0.02 0.03 0.03 0.04 0.04 0.05 0.06 0.07 0.07 0.09 0.10 0.11 0.11 0.12 0.12
0.00 0.00 0.00 0.00 0.00 0.00 0.00 0.00 0.00 0.00 0.01 0.01 0.01 0.00 0.00 0.00 0.00 0.00 0.00 0.00 0.01 0.01 0.01 0.01 0.01 0.01 0.01 0.01 0.02 0.03 0.04 0.04 0.04 0.04 0.05 0.06 0.07 0.08 0.08 0.09 0.10 0.10 0.11 0.11
0.00 0.00 0.00 0.00 0.00 0.00 0.00 0.00 0.00 0.00 0.01 0.01 0.01 0.00 0.00 0.00 0.00 0.00 0.00 0.00 0.01 0.01 0.01 0.01 0.01 0.01 0.01 0.01 0.01 0.02 0.06 0.06 0.04 0.04 0.05 0.06 0.07 0.08 0.08 0.09 0.10 0.10 0.11 0.12
0.00 0.00 0.00 0.00 0.00 0.00 0.00 0.00 0.00 0.00 0.00 0.00 0.00 0.00 0.00 0.00 0.00 0.00 0.00 0.00 0.00 0.01 0.01 0.01 0.01 0.01 0.01 0.01 0.01 0.02 0.07 0.07 0.05 0.04 0.05 0.07 0.08 0.07 0.07 0.08 0.08 0.08 0.10 0.10
0.00 0.00 0.00 0.00 0.00 0.00 0.00 0.00 0.00 0.00 0.00 0.00 0.00 0.00 0.00 0.00 0.00 0.00 0.00 0.00 0.00 0.00 0.01 0.01 0.01 0.01 0.01 0.01 0.02 0.03 0.06 0.05 0.05 0.04 0.06 0.08 0.09 0.08 0.07 0.08 0.08 0.08 0.08 0.08
0.00 0.00 0.00 0.00 0.00 0.00 0.00 0.00 0.00 0.00 0.00 0.00 0.00 0.00 0.00 0.00 0.00 0.00 0.00 0.00 0.00 0.00 0.01 0.01 0.01 0.01 0.01 0.02 0.03 0.04 0.05 0.04 0.04 0.03 0.04 0.07 0.09 0.10 0.10 0.09 0.09 0.10 0.10 0.10
0.00 0.00 0.00 0.00 0.00 0.00 0.00 0.00 0.00 0.00 0.00 0.00 0.00 0.00 0.00 0.00 0.00 0.00 0.00 0.00 0.00 0.00 0.01 0.01 0.01 0.01 0.01 0.02 0.03 0.04 0.04 0.05 0.05 0.03 0.04 0.05 0.06 0.09 0.10 0.09 0.09 0.10 0.10 0.10
0.00 0.00 0.00 0.00 0.00 0.00 0.00 0.00 0.00 0.00 0.00 0.00 0.00 0.00 0.00 0.00 0.00 0.00 0.00 0.00 0.00 0.00 0.00 0.00 0.01 0.01 0.01 0.01 0.02 0.02 0.04 0.05 0.04 0.03 0.04 0.05 0.05 0.07 0.08 0.07 0.08 0.08 0.08 0.09
0.00 0.00 0.00 0.00 0.00 0.00 0.00 0.00 0.00 0.00 0.00 0.00 0.00 0.00 0.00 0.00 0.00 0.00 0.00 0.00 0.00 0.00 0.00 0.00 0.00 0.01 0.01 0.01 0.01 0.02 0.02 0.03 0.02 0.02 0.03 0.04 0.05 0.06 0.08 0.07 0.07 0.06 0.06 0.08
0.00 0.00 0.00 0.00 0.00 0.00 0.00 0.00 0.00 0.00 0.00 0.00 0.00 0.00 0.00 0.00 0.00 0.00 0.00 0.00 0.00 0.00 0.00 0.00 0.00 0.00 0.01 0.01 0.01 0.01 0.02 0.02 0.02 0.02 0.02 0.03 0.04 0.05 0.07 0.06 0.06 0.06 0.05 0.05
0.00 0.00 0.00 0.00 0.00 0.00 0.00 0.00 0.00 0.00 0.00 0.00 0.00 0.00 0.00 0.00 0.00 0.00 0.00 0.00 0.00 0.00 0.00 0.00 0.00 0.00 0.00 0.01 0.01 0.02 0.02 0.01 0.01 0.02 0.02 0.03 0.03 0.04 0.06 0.06 0.06 0.06 0.06 0.07
0.00 0.00 0.00 0.00 0.00 0.00 0.00 0.00 0.00 0.00 0.00 0.00 0.00 0.00 0.00 0.00 0.00 0.00 0.00 0.00 0.00 0.00 0.00 0.00 0.00 0.00 0.00 0.01 0.01 0.01 0.02 0.02 0.01 0.02 0.02 0.03 0.04 0.04 0.05 0.05 0.06 0.06 0.06 0.07
0.00 0.00 0.00 0.00 0.00 0.00 0.00 0.00 0.00 0.00 0.00 0.00 0.00 0.00 0.00 0.00 0.00 0.00 0.00 0.00 0.00 0.00 0.00 0.00 0.01 0.00 0.00 0.01 0.01 0.01 0.02 0.02 0.01 0.01 0.02 0.02 0.03 0.03 0.04 0.04 0.05 0.05 0.05 0.05
0.00 0.00 0.00 0.00 0.00 0.00 0.00 0.00 0.00 0.00 0.00 0.00 0.00 0.00 0.00 0.00 0.00 0.00 0.00 0.00 0.00 0.01 0.01 0.01 0.01 0.00 0.00 0.00 0.01 0.01 0.01 0.02 0.02 0.01 0.01 0.02 0.02 0.03 0.03 0.03 0.03 0.03 0.03 0.04
0.00 0.00 0.00 0.00 0.00 0.00 0.00 0.00 0.00 0.00 0.00 0.00 0.00 0.00 0.00 0.00 0.00 0.00 0.00 0.00 0.00 0.00 0.00 0.01 0.01 0.00 0.00 0.01 0.01 0.01 0.01 0.02 0.02 0.02 0.02 0.02 0.02 0.03 0.03 0.03 0.03 0.03 0.03 0.03
0.00 0.00 0.00 0.00 0.00 0.00 0.00 0.00 0.00 0.00 0.00 0.00 0.00 0.00 0.00 0.00 0.00 0.00 0.00 0.00 0.00 0.00 0.00 0.00 0.01 0.01 0.01 0.01 0.01 0.02 0.02 0.02 0.02 0.02 0.02 0.02 0.02 0.02 0.02 0.02 0.02 0.02 0.02 0.02
0.00 0.00 0.00 0.00 0.00 0.00 0.00 0.00 0.00 0.00 0.00 0.00 0.00 0.00 0.00 0.00 0.00 0.00 0.00 0.00 0.00 0.00 0.00 0.01 0.01 0.01 0.01 0.01 0.01 0.02 0.02 0.02 0.02 0.02 0.02 0.02 0.02 0.02 0.02 0.02 0.02 0.02 0.02 0.02
0.00 0.00 0.00 0.00 0.00 0.00 0.00 0.00 0.00 0.00 0.00 0.00 0.00 0.00 0.00 0.00 0.00 0.00 0.00 0.00 0.00 0.00 0.00 0.01 0.01 0.01 0.01 0.02 0.02 0.01 0.01 0.01 0.01 0.01 0.01 0.01 0.02 0.02 0.02 0.02 0.02 0.02 0.02 0.02
0.00 0.00 0.00 0.00 0.00 0.00 0.00 0.00 0.00 0.00 0.00 0.00 0.00 0.00 0.00 0.00 0.00 0.00 0.00 0.00 0.00 0.00 0.01 0.00 0.01 0.01 0.01 0.01 0.01 0.01 0.01 0.01 0.01 0.01 0.01 0.01 0.01 0.01 0.01 0.01 0.02 0.01 0.01 0.01
0.00 0.00 0.00 0.00 0.01 0.01 0.01 0.01 0.01 0.00 0.00 0.00 0.00 0.00 0.00 0.00 0.00 0.00 0.00 0.00 0.00 0.00 0.00 0.00 0.01 0.01 0.01 0.01 0.01 0.01 0.01 0.01 0.01 0.01 0.01 0.01 0.01 0.01 0.01 0.01 0.01 0.01 0.01 0.01
0.00 0.00 0.01 0.01 0.01 0.01 0.01 0.01 0.01 0.00 0.00 0.00 0.00 0.00 0.00 0.00 0.00 0.00 0.00 0.00 0.00 0.00 0.00 0.00 0.01 0.01 0.01 0.01 0.01 0.01 0.01 0.01 0.01 0.01 0.01 0.01 0.01 0.01 0.01 0.01 0.01 0.01 0.01 0.01
MSLP
1014.78 1014.42 1014.10 1013.86 1013.72 1013.71 1013.82 1014.03 1014.33 1014.67 1015.02 1015.35 1015.63 1015.82 1015.92 1015.91 1015.78 1015.55 1015.22 1014.81 1014.34 1013.83 1013.32 1012.82 1012.35 1011.93 1011.55 1011.24 1010.98 1010.78 1010.61 1010.49 1010.40 1010.35 1010.34 1010.36 1010.42 1010.51 1010.64 1010.79 1010.98 1011.19 1011.44 1011.72
1015.55 1015.23 1014.94 1014.70 1014.56 1014.52 1014.60 1014.78 1015.05 1015.37 1015.71 1016.04 1016.33 1016.55 1016.68 1016.72 1016.66 1016.51 1016.28 1015.97 1015.61 1015.22 1014.81 1014.40 1013.99 1013.60 1013.23 1012.89 1012.57 1012.27 1012.00 1011.76 1011.55 1011.38 1011.24 1011.14 1011.08 1011.06 1011.07 1011.11 1011.18 1011.28 1011.42 1011.59
1016.28 1016.00 1015.73 1015.51 1015.36 1015.31 1015.37 1015.53 1015.77 1016.06 1016.39 1016.71 1017.00 1017.24 1017.40 1017.48 1017.48 1017.40 1017.25 1017.03 1016.77 1016.47 1016.14 1015.79 1015.43 1015.05 1014.67 1014.28 1013.89 1013.51 1013.14 1012.80 1012.49 1012.21 1011.98 1011.80 1011.66 1011.56 1011.50 1011.46 1011.45 1011.46 1011.51 1011.60
1016.91 1016.66 1016.40 1016.19 1016.04 1015.98 1016.03 1016.17 1016.40 1016.69 1017.01 1017.33 1017.63 1017.88 1018.07 1018.18 1018.22 1018.20 1018.10 1017.95 1017.76 1017.52 1017.24 1016.92 1016.57 1016.19 1015.78 1015.34 1014.88 1014.43 1013.98 1013.56 1013.17 1012.83 1012.55 1012.32 1012.15 1012.02 1011.92 1011.85 1011.79 1011.75 1011.74 1011.76
1017.39 1017.14 1016.90 1016.68 1016.53 1016.48 1016.53 1016.67 1016.90 1017.20 1017.53 1017.87 1018.18 1018.45 1018.66 1018.81 1018.88 1018.88 1018.82 1018.71 1018.55 1018.34 1018.07 1017.76 1017.40 1016.99 1016.54 1016.05 1015.54 1015.02 1014.51 1014.04 1013.61 1013.25 1012.95 1012.72 1012.54 1012.42 1012.32 1012.25 1012.18 1012.13 1012.08 1012.05
1017.69 1017.44 1017.19 1016.97 1016.83 1016.79 1016.86 1017.03 1017.29 1017.61 1017.97 1018.33 1018.67 1018.96 1019.19 1019.35 1019.44 1019.46 1019.41 1019.30 1019.14 1018.93 1018.65 1018.32 1017.93 1017.49 1016.99 1016.46 1015.90 1015.34 1014.80 1014.30 1013.86 1013.49 1013.20 1012.99 1012.85 1012.75 1012.68 1012.63 1012.58 1012.53 1012.47 1012.42
1017.82 1017.55 1017.30 1017.09 1016.97 1016.95 1017.05 1017.26 1017.57 1017.93 1018.33 1018.73 1019.10 1019.41 1019.66 1019.83 1019.91 1019.93 1019.87 1019.75 1019.56 1019.32 1019.02 1018.65 1018.23 1017.74 1017.21 1016.64 1016.05 1015.47 1014.92 1014.42 1013.98 1013.63 1013.37 1013.18 1013.07 1013.01 1012.98 1012.96 1012.94 1012.90 1012.86 1012.80
1017.78 1017.50 1017.25 1017.06 1016.98 1017.01 1017.17 1017.44 1017.80 1018.22 1018.66 1019.10 1019.50 1019.83 1020.08 1020.24 1020.32 1020.31 1020.23 1020.07 1019.85 1019.57 1019.23 1018.82 1018.36 1017.85 1017.29 1016.70 1016.11 1015.52 1014.97 1014.47 1014.06 1013.72 1013.48 1013.32 1013.23 1013.19 1013.18 1013.18 1013.18 1013.17 1013.14 1013.10
1017.59 1017.31 1017.09 1016.95 1016.93 1017.03 1017.26 1017.60 1018.02 1018.50 1018.99 1019.46 1019.87 1020.21 1020.46 1020.61 1020.66 1020.63 1020.51 1020.32 1020.06 1019.74 1019.36 1018.92 1018.43 1017.90 1017.33 1016.74 1016.15 1015.57 1015.03 1014.54 1014.14 1013.81 1013.57 1013.41 1013.32 1013.28 1013.27 1013.27 1013.28 1013.28 1013.27 1013.25
1017.26 1017.02 1016.85 1016.79 1016.85 1017.05 1017.36 1017.78 1018.27 1018.80 1019.32 1019.82 1020.24 1020.57 1020.81 1020.94 1020.96 1020.90 1020.74 1020.51 1020.22 1019.87 1019.46 1019.01 1018.51 1017.97 1017.41 1016.82 1016.24 1015.68 1015.15 1014.67 1014.26 1013.93 1013.67 1013.48 1013.35 1013.28 1013.24 1013.22 1013.21 1013.21 1013.20 1013.20
1016.82 1016.64 1016.56 1016.60 1016.78 1017.08 1017.49 1017.98 1018.54 1019.11 1019.66 1020.15 1020.57 1020.89 1021.10 1021.21 1021.21 1021.11 1020.94 1020.68 1020.37 1020.00 1019.59 1019.13 1018.63 1018.10 1017.55 1016.99 1016.43 1015.88 1015.36 1014.89 1014.46 1014.10 1013.79 1013.55 1013.36 1013.22 1013.11 1013.04 1012.99 1012.96 1012.95 1012.97
1016.27 1016.19 1016.23 1016.39 1016.69 1017.11 1017.62 1018.19 1018.79 1019.39 1019.95 1020.44 1020.84 1021.14 1021.33 1021.41 1021.39 1021.28 1021.09 1020.84 1020.52 1020.16 1019.75 1019.30 1018.82 1018.31 1017.79 1017.25 1016.71 1016.18 1015.67 1015.18 1014.74 1014.33 1013.97 1013.65 1013.37 1013.14 1012.94 1012.78 1012.67 1012.59 1012.56 1012.57
1015.64 1015.68 1015.85 1016.16 1016.59 1017.12 1017.72 1018.36 1019.00 1019.61 1020.16 1020.64 1021.02 1021.29 1021.46 1021.53 1021.50 1021.39 1021.21 1020.97 1020.67 1020.33 1019.94 1019.52 1019.06 1018.59 1018.09 1017.58 1017.07 1016.55 1016.05 1015.56 1015.08 1014.63 1014.20 1013.80 1013.43 1013.09 1012.79 1012.54 1012.34 1012.19 1012.12 1012.11
1014.96 1015.13 1015.44 1015.89 1016.45 1017.08 1017.76 1018.45 1019.11 1019.73 1020.26 1020.72 1021.07 1021.32 1021.48 1021.55 1021.53 1021.45 1021.29 1021.08 1020.81 1020.50 1020.15 1019.76 1019.34 1018.90 1018.44 1017.96 1017.47 1016.98 1016.48 1015.99 1015.50 1015.01 1014.53 1014.05 1013.59 1013.16 1012.75 1012.40 1012.10 1011.88 1011.74 1011.69
1014.28 1014.58 1015.03 1015.60 1016.27 1016.99 1017.73 1018.45 1019.12 1019.72 1020.24 1020.66 1020.99 1021.24 1021.40 1021.48 1021.49 1021.43 1021.32 1021.16 1020.94 1020.67 1020.36 1020.02 1019.63 1019.23 1018.80 1018.35 1017.90 1017.43 1016.96 1016.48 1015.98 1015.47 1014.95 1014.42 1013.90 1013.38 1012.88 1012.43 1012.04 1011.72 1011.50 1011.39
1013.65 1014.06 1014.63 1015.31 1016.07 1016.85 1017.62 1018.35 1019.01 1019.60 1020.09 1020.49 1020.81 1021.05 1021.22 1021.33 1021.38 1021.37 1021.31 1021.20 1021.04 1020.82 1020.56 1020.25 1019.91 1019.54 1019.15 1018.74 1018.32 1017.90 1017.45 1017.00 1016.52 1016.02 1015.49 1014.93 1014.36 1013.78 1013.22 1012.69 1012.21 1011.81 1011.50 1011.30
1013.12 1013.64 1014.30 1015.06 1015.87 1016.68 1017.47 1018.19 1018.83 1019.38 1019.85 1020.23 1020.54 1020.78 1020.97 1021.12 1021.21 1021.26 1021.26 1021.20 1021.09 1020.93 1020.71 1020.44 1020.14 1019.81 1019.46 1019.10 1018.72 1018.34 1017.94 1017.53 1017.09 1016.62 1016.10 1015.55 1014.97 1014.36 1013.76 1013.17 1012.62 1012.15 1011.76 1011.48
1012.75 1013.34 1014.07 1014.87 1015.71 1016.53 1017.30 1018.00 1018.60 1019.12 1019.56 1019.92 1020.22 1020.47 1020.68 1020.86 1021.00 1021.09 1021.14 1021.14 1021.08 1020.96 1020.79 1020.57 1020.30 1020.01 1019.70 1019.38 1019.06 1018.73 1018.39 1018.03 1017.65 1017.22 1016.76 1016.24 1015.67 1015.07 1014.46 1013.84 1013.26 1012.72 1012.27 1011.92
1012.57 1013.21 1013.97 1014.79 1015.62 1016.42 1017.15 1017.81 1018.37 1018.85 1019.25 1019.59 1019.88 1020.14 1020.36 1020.56 1020.74 1020.87 1020.96 1021.00 1020.98 1020.90 1020.76 1020.58 1020.35 1020.10 1019.83 1019.56 1019.30 1019.03 1018.75 1018.46 1018.14 1017.78 1017.38 1016.91 1016.39 1015.83 1015.23 1014.62 1014.03 1013.48 1012.99 1012.60
1012.57 1013.24 1014.00 1014.81 1015.60 1016.36 1017.04 1017.64 1018.15 1018.58 1018.94 1019.25 1019.53 1019.78 1020.01 1020.22 1020.41 1020.56 1020.68 1020.74 1020.75 1020.70 1020.59 1020.44 1020.25 1020.04 1019.82 1019.61 1019.39 1019.18 1018.98 1018.76 1018.51 1018.23 1017.89 1017.50 1017.04 1016.53 1015.98 1015.42 1014.85 1014.32 1013.83 1013.43
1012.72 1013.39 1014.14 1014.90 1015.64 1016.33 1016.95 1017.48 1017.93 1018.31 1018.63 1018.91 1019.15 1019.38 1019.60 1019.81 1019.99 1020.15 1020.27 1020.34 1020.37 1020.34 1020.25 1020.13 1019.98 1019.82 1019.64 1019.48 1019.33 1019.18 1019.04 1018.89 1018.71 1018.50 1018.24 1017.92 1017.54 1017.11 1016.64 1016.14 1015.63 1015.14 1014.70 1014.32
1012.97 1013.62 1014.31 1015.02 1015.69 1016.30 1016.85 1017.31 1017.70 1018.02 1018.29 1018.53 1018.74 1018.94 1019.13 1019.31 1019.48 1019.62 1019.73 1019.80 1019.82 1019.80 1019.74 1019.65 1019.54 1019.42 1019.30 1019.19 1019.09 1019.01 1018.92 1018.84 1018.73 1018.59 1018.40 1018.16 1017.86 1017.51 1017.13 1016.71 1016.29 1015.88 1015.51 1015.19
1013.23 1013.84 1014.47 1015.10 1015.70 1016.23 1016.70 1017.09 1017.42 1017.68 1017.91 1018.10 1018.27 1018.43 1018.58 1018.72 1018.85 1018.96 1019.05 1019.10 1019.12 1019.11 1019.07 1019.01 1018.94 1018.87 1018.81 1018.75 1018.72 1018.69 1018.66 1018.63 1018.58 1018.50 1018.38 1018.21 1018.00 1017.73 1017.44 1017.12 1016.80 1016.48 1016.20 1015.96
1013.45 1014.00 1014.56 1015.10 1015.61 1016.06 1016.45 1016.78 1017.05 1017.27 1017.45 1017.59 1017.72 1017.84 1017.94 1018.04 1018.13 1018.20 1018.26 1018.30 1018.31 1018.31 1018.30 1018.28 1018.25 1018.23 1018.23 1018.24 1018.26 1018.28 1018.31 1018.33 1018.33 1018.30 1018.24 1018.13 1017.98 1017.80 1017.59 1017.37 1017.14 1016.92 1016.73 1016.57
1013.58 1014.06 1014.53 1014.98 1015.41 1015.78 1016.10 1016.38 1016.59 1016.77 1016.91 1017.02 1017.10 1017.18 1017.24 1017.29 1017.34 1017.38 1017.41 1017.43 1017.45 1017.46 1017.48 1017.50 1017.53 1017.57 1017.62 1017.69 1017.77 1017.85 1017.93 1017.99 1018.04 1018.05 1018.03 1017.97 1017.88 1017.76 1017.62 1017.48 1017.33 1017.19 1017.07 1016.98
1013.61 1014.00 1014.38 1014.75 1015.09 1015.39 1015.66 1015.88 1016.06 1016.20 1016.31 1016.39 1016.44 1016.48 1016.50 1016.52 1016.53 1016.54 1016.55 1016.57 1016.59 1016.63 1016.68 1016.75 1016.84 1016.94 1017.06 1017.19 1017.33 1017.46 1017.58 1017.69 1017.76 1017.81 1017.82 1017.80 1017.74 1017.67 1017.58 1017.49 1017.40 1017.32 1017.25 1017.21
1013.56 1013.85 1014.14 1014.43 1014.69 1014.94 1015.15 1015.33 1015.48 1015.60 1015.69 1015.74 1015.78 1015.79 1015.78 1015.77 1015.75 1015.74 1015.74 1015.76 1015.80 1015.86 1015.96 1016.08 1016.22 1016.39 1016.58 1016.77 1016.96 1017.14 1017.30 1017.44 1017.54 1017.61 1017.64 1017.63 1017.61 1017.56 1017.50 1017.43 1017.37 1017.31 1017.27 1017.24
Thickness
5500 5506 5506 5507 5508 5506 5500 5497 5493 5497 5497 5504 5502 5501 5500 5499 5499 5499 5499 5499 5499 5500 5501 5504 5507 5510 5513 5515 5519 5523 5526 5529 5531 5534 5537 5540 5544 5548 5552 5555 5557 5559 5559 5560
5499 5507 5507 5508 5511 5509 5507 5505 5502 5502 5503 5506 5503 5500 5498 5496 5496 5495 5494 5495 5495 5495 5496 5497 5499 5502 5504 5506 5509 5513 5516 5518 5521 5524 5527 5530 5534 5537 5541 5544 5546 5547 5548 5548
5492 5500 5506 5506 5513 5512 5510 5509 5507 5505 5507 5506 5503 5500 5495 5493 5493 5491 5490 5490 5490 5490 5490 5492 5493 5495 5496 5498 5501 5504 5506 5508 5510 5514 5517 5520 5523 5527 5530 5532 5534 5535 5535 5536
5487 5495 5505 5520 5523 5520 5516 5516 5513 5512 5508 5505 5503 5498 5494 5491 5488 5487 5486 5486 5485 5484 5485 5486 5487 5488 5488 5490 5491 5493 5494 5495 5498 5501 5504 5507 5510 5513 5516 5519 5521 5522 5524 5525
5484 5486 5500 5519 5523 5521 5516 5515 5515 5510 5507 5503 5499 5493 5489 5489 5486 5484 5483 5481 5479 5478 5478 5478 5479 5479 5480 5480 5479 5481 5482 5483 5485 5488 5491 5494 5497 5500 5502 5505 5508 5509 5511 5512
5482 5492 5505 5527 5524 5522 5518 5513 5517 5511 5505 5500 5496 5489 5489 5488 5484 5481 5479 5477 5474 5472 5471 5471 5470 5470 5470 5469 5469 5469 5470 5471 5473 5475 5478 5481 5484 5487 5489 5492 5495 5496 5498 5499
5480 5485 5501 5519 5519 5520 5511 5520 5519 5512 5506 5499 5494 5492 5488 5485 5481 5478 5476 5473 5471 5468 5465 5464 5463 5462 5461 5460 5458 5458 5459 5461 5462 5464 5466 5469 5472 5474 5477 5480 5482 5484 5484 5485
5480 5484 5505 5520 5516 5514 5518 5518 5514 5509 5505 5498 5493 5489 5485 5481 5477 5474 5471 5469 5467 5463 5460 5459 5457 5455 5453 5451 5450 5449 5449 5450 5451 5453 5455 5458 5459 5462 5464 5467 5468 5470 5470 5470
5496 5511 5519 5516 5518 5520 5515 5512 5509 5505 5502 5497 5490 5485 5482 5478 5474 5471 5469 5465 5462 5458 5455 5452 5450 5447 5445 5443 5442 5441 5441 5441 5441 5443 5444 5446 5448 5449 5451 5453 5454 5455 5456 5457
5497 5509 5514 5515 5515 5515 5512 5510 5508 5503 5498 5493 5488 5483 5479 5474 5470 5467 5464 5461 5457 5453 5450 5447 5444 5441 5437 5435 5433 5431 5431 5431 5432 5432 5433 5434 5436 5437 5438 5439 5440 5442 5442 5443
5498 5508 5511 5515 5514 5512 5509 5506 5502 5498 5494 5489 5484 5480 5475 5470 5466 5463 5460 5456 5452 5448 5444 5441 5437 5433 5430 5427 5425 5423 5422 5422 5421 5421 5421 5421 5423 5424 5425 5425 5427 5429 5429 5430
5508 5513 5510 5515 5516 5511 5505 5502 5498 5493 5489 5484 5480 5475 5471 5466 5462 5457 5453 5449 5446 5442 5438 5433 5429 5426 5422 5420 5417 5415 5413 5412 5412 5410 5410 5410 5411 5412 5413 5413 5415 5417 5418 5419
5514 5514 5511 5514 5511 5507 5504 5499 5494 5489 5484 5479 5474 5470 5465 5460 5456 5452 5447 5443 5439 5434 5431 5427 5423 5419 5415 5411 5408 5406 5404 5403 5401 5400 5399 5399 5399 5399 5399 5401 5402 5404 5406 5407
5506 5505 5504 5504 5502 5500 5497 5492 5487 5482 5478 5474 5469 5464 5459 5453 5448 5444 5440 5436 5432 5428 5423 5419 5414 5411 5407 5403 5400 5397 5395 5393 5391 5389 5387 5387 5387 5387 5388 5389 5390 5390 5392 5393
5500 5501 5501 5499 5495 5492 5488 5483 5478 5473 5470 5466 5461 5456 5451 5446 5441 5436 5431 5427 5424 5419 5415 5411 5407 5403 5399 5395 5391 5388 5385 5383 5381 5379 5377 5376 5375 5375 5375 5376 5377 5377 5378 5379
5495 5493 5491 5489 5487 5483 5479 5476 5472 5468 5464 5459 5454 5449 5444 5438 5432 5426 5421 5417 5413 5409 5406 5401 5397 5394 5390 5386 5382 5379 5375 5373 5371 5369 5366 5365 5364 5363 5363 5363 5364 5364 5365 5365
5485 5484 5481 5480 5478 5476 5474 5471 5468 5463 5457 5452 5447 5441 5434 5428 5422 5417 5412 5407 5403 5399 5396 5391 5388 5384 5380 5376 5372 5368 5365 5362 5360 5357 5355 5353 5352 5352 5351 5351 5351 5351 5351 5352
5486 5486 5482 5480 5476 5471 5467 5463 5460 5455 5450 5444 5438 5431 5425 5419 5413 5408 5403 5398 5393 5389 5386 5382 5378 5374 5370 5366 5362 5358 5355 5351 5348 5346 5343 5342 5341 5340 5339 5339 5339 5339 5339 5340
5478 5477 5474 5471 5467 5464 5460 5455 5450 5445 5440 5434 5428 5422 5416 5411 5405 5399 5394 5388 5384 5379 5376 5372 5369 5364 5360 5356 5352 5347 5343 5340 5337 5334 5332 5331 5329 5328 5327 5327 5326 5326 5327 5327
5469 5467 5464 5461 5457 5453 5449 5444 5439 5433 5429 5424 5418 5412 5406 5401 5395 5389 5384 5379 5376 5372 5368 5363 5359 5354 5350 5346 5343 5338 5333 5330 5326 5324 5321 5319 5318 5317 5316 5315 5314 5314 5314 5315
5457 5456 5453 5449 5445 5442 5438 5433 5428 5423 5418 5414 5409 5403 5397 5391 5386 5380 5375 5371 5368 5363 5359 5355 5349 5345 5341 5338 5334 5329 5324 5320 5317 5313 5310 5308 5306 5306 5305 5304 5303 5302 5302 5302
5444 5442 5440 5436 5432 5428 5425 5421 5417 5413 5408 5403 5398 5393 5387 5381 5376 5370 5366 5363 5359 5355 5350 5345 5340 5337 5333 5330 5324 5319 5314 5310 5307 5303 5300 5298 5296 5294 5293 5292 5291 5291 5291 5290
5432 5430 5427 5424 5420 5416 5411 5408 5405 5402 5397 5393 5388 5382 5377 5372 5367 5362 5357 5353 5349 5345 5341 5336 5332 5329 5325 5319 5314 5309 5304 5301 5297 5294 5290 5288 5285 5284 5283 5281 5281 5280 5280 5280
5419 5417 5414 5410 5406 5403 5399 5396 5393 5390 5386 5382 5378 5373 5368 5362 5357 5352 5348 5344 5340 5336 5331 5327 5324 5320 5315 5309 5304 5299 5295 5291 5287 5284 5281 5279 5276 5274 5273 5272 5270 5270 5270 5270
5407 5404 5401 5397 5395 5393 5390 5385 5380 5377 5373 5370 5366 5362 5358 5353 5348 5343 5337 5333 5330 5326 5321 5317 5314 5310 5304 5299 5294 5290 5286 5282 5278 5275 5272 5269 5267 5265 5263 5263 5262 5261 5261 5261
5395 5393 5391 5389 5386 5383 5378 5374 5370 5367 5363 5359 5355 5351 5347 5342 5337 5332 5327 5323 5319 5316 5311 5306 5302 5298 5293 5289 5285 5281 5277 5273 5270 5266 5263 5261 5258 5256 5255 5254 5253 5253 5253 5252
5384 5381 5378 5376 5373 5371 5367 5364 5361 5357 5354 5350 5345 5341 5336 5332 5327 5322 5317 5312 5308 5304 5300 5296 5292 5288 5284 5280 5276 5272 5268 5265 5262 5259 5256 5253 5251 5249 5248 5247 5246 5245 5245 5245